| time (UTC) | temp C | wind direction | speed KPH | gust KPH | rain 1hr cm | rain 24hr cm | rain mn cm | humidity % | barometer mb |
| 20260510050241 | 6 | 60 | 8.0 | 0.0 | 0.00 | 0.00 | 0.00 | 100 | 1017.0 |
| 20260510044010 | 5 | 60 | 4.8 | 0.0 | 0.00 | 0.00 | 0.00 | 100 | 1017.0 |
| 20260510043510 | 5 | 70 | 4.8 | 0.0 | 0.00 | 0.00 | 0.00 | 100 | 1017.0 |
| 20260510043224 | 5 | 110 | 4.8 | 0.0 | 0.00 | 0.00 | 0.00 | 93 | 1017.0 |
| 20260510042703 | 5 | 120 | 4.8 | 0.0 | 0.00 | 0.00 | 0.00 | 100 | 1017.0 |
| 20260510042455 | 2 | 0 | 3.2 | 0.0 | 0.00 | 0.00 | 0.00 | 99 | |
| 20260510041803 | 3 | 150 | 1.6 | 0.0 | 0.00 | 0.00 | 0.00 | 100 | 1017.0 |
| 20260510040242 | 2 | 0 | 0.0 | 0.0 | 0.00 | 0.00 | 0.00 | 100 | 1018.0 |
| 20260510033603 | 2 | 230 | 4.8 | 0.0 | 0.00 | 0.00 | 0.00 | 93 | 1018.0 |
| 20260510033224 | 2 | 0 | 3.2 | 0.0 | 0.00 | 0.00 | 0.00 | 93 | 1018.0 |
| 20260510032156 | 2 | 0 | 3.2 | 0.0 | 0.00 | 0.00 | 0.00 | 99 | |
| 20260510031203 | 2 | 0 | 3.2 | 0.0 | 0.00 | 0.00 | 0.00 | 93 | 1018.0 |
| 20260510030238 | 2 | 0 | 0.0 | 0.0 | 0.00 | 0.00 | 0.00 | 93 | 1018.0 |
| 20260510023231 | 2 | 0 | 0.0 | 0.0 | 0.00 | 0.00 | 0.00 | 93 | 1018.0 |
| 20260510022155 | 2 | 0 | 3.2 | 0.0 | 0.00 | 0.00 | 0.00 | 93 | |
| 20260510020241 | 3 | 320 | 3.2 | 0.0 | 0.00 | 0.00 | 0.00 | 100 | 1018.0 |
| 20260510013224 | 3 | 150 | 3.2 | 0.0 | 0.00 | 0.00 | 0.00 | 100 | 1018.0 |
| 20260510012406 | 3 | 130 | 4.8 | 0.0 | 0.00 | 0.00 | 0.00 | 100 | 1018.0 |
| 20260510012358 | 3 | 0 | 3.2 | 0.0 | 0.00 | 0.00 | 0.00 | 99 | |
| 20260510011010 | 3 | 0 | 1.6 | 0.0 | 0.00 | 0.00 | 0.00 | 100 | 1018.0 |
| 20260510010239 | 3 | 0 | 1.6 | 0.0 | 0.00 | 0.00 | 0.00 | 100 | 1018.0 |
| 20260510005306 | 3 | 0 | 0.0 | 0.0 | 0.00 | 0.00 | 0.00 | 100 | 1018.0 |
| 20260510004803 | 3 | 0 | 0.0 | 0.0 | 0.00 | 0.00 | 0.00 | 100 | 1018.0 |
| 20260510003224 | 3 | 0 | 0.0 | 0.0 | 0.00 | 0.00 | 0.00 | 100 | 1018.0 |
| 20260510002157 | 5 | 90 | 3.2 | 0.0 | 0.00 | 0.00 | 0.00 | 99 | |
| 20260510000235 | 5 | 0 | 0.0 | 0.0 | 0.00 | 0.00 | 0.00 | 100 | 1019.0 |
| 20260509233223 | 5 | 30 | 3.2 | 0.0 | 0.00 | 0.00 | 0.00 | 100 | 1019.0 |
| 20260509232156 | 6 | 0 | 0.0 | 0.0 | 0.00 | 0.00 | 0.00 | 99 | |
| 20260509230238 | 5 | 340 | 3.2 | 0.0 | 0.00 | 0.00 | 0.00 | 100 | 1019.0 |
| 20260509223223 | 5 | 350 | 4.8 | 0.0 | 0.00 | 0.00 | 0.00 | 93 | 1019.0 |
| 20260509222458 | 7 | 120 | 3.2 | 0.0 | 0.00 | 0.00 | 0.00 | 93 | |
| 20260509220238 | 6 | 110 | 3.2 | 0.0 | 0.00 | 0.00 | 0.00 | 93 | 1019.0 |
| 20260509213223 | 7 | 0 | 3.2 | 0.0 | 0.00 | 0.00 | 0.00 | 93 | 1019.0 |
| 20260509212155 | 7 | 60 | 3.2 | 0.0 | 0.00 | 0.00 | 0.00 | 87 | |
| 20260509210239 | 7 | 50 | 4.8 | 0.0 | 0.00 | 0.00 | 0.00 | 87 | 1019.0 |
| 20260509203224 | 8 | 30 | 4.8 | 0.0 | 0.00 | 0.00 | 0.00 | 81 | 1019.0 |
| 20260509202157 | 8 | 20 | 3.2 | 0.0 | 0.00 | 0.00 | 0.00 | 81 | |
| 20260509200238 | 8 | 10 | 4.8 | 0.0 | 0.00 | 0.00 | 0.00 | 81 | 1020.0 |
| 20260509193223 | 10 | 30 | 4.8 | 0.0 | 0.00 | 0.00 | 0.00 | 76 | 1020.0 |
| 20260509192258 | 11 | 40 | 8.0 | 0.0 | 0.00 | 0.00 | 0.00 | 71 | |
| 20260509190239 | 8 | 30 | 8.0 | 0.0 | 0.00 | 0.00 | 0.00 | 81 | 1019.0 |
| 20260509183223 | 8 | 20 | 12.9 | 0.0 | 0.00 | 0.00 | 0.00 | 76 | 1019.0 |
| 20260509182156 | 12 | 20 | 14.5 | 0.0 | 0.00 | 0.00 | 0.00 | 62 | |
| 20260509180243 | 12 | 20 | 12.9 | 0.0 | 0.00 | 0.00 | 0.00 | 62 | 1019.0 |
| 20260509173230 | 12 | 30 | 12.9 | 0.0 | 0.00 | 0.00 | 0.00 | 62 | 1019.0 |
| 20260509172158 | 12 | 30 | 14.5 | 0.0 | 0.00 | 0.00 | 0.00 | 58 | |
| 20260509170240 | 12 | 30 | 14.5 | 0.0 | 0.00 | 0.00 | 0.00 | 62 | 1019.0 |
| 20260509163231 | 13 | 40 | 14.5 | 0.0 | 0.00 | 0.00 | 0.00 | 58 | 1019.0 |
| 20260509162455 | 15 | 30 | 19.3 | 0.0 | 0.00 | 0.00 | 0.00 | 51 | |
| 20260509160232 | 13 | 30 | 16.1 | 0.0 | 0.00 | 0.00 | 0.00 | 58 | 1019.0 |
| 20260509153230 | 13 | 30 | 14.5 | 0.0 | 0.00 | 0.00 | 0.00 | 58 | 1019.0 |
| 20260509152157 | 13 | 40 | 14.5 | 0.0 | 0.00 | 0.00 | 0.00 | 54 | |
| 20260509150239 | 13 | 30 | 14.5 | 0.0 | 0.00 | 0.00 | 0.00 | 58 | 1019.0 |
| 20260509143231 | 13 | 30 | 14.5 | 0.0 | 0.00 | 0.00 | 0.00 | 58 | 1019.0 |
| 20260509142156 | 13 | 20 | 14.5 | 0.0 | 0.00 | 0.00 | 0.00 | 58 | |
| 20260509140239 | 13 | 10 | 14.5 | 0.0 | 0.00 | 0.00 | 0.00 | 58 | 1019.0 |
| 20260509133231 | 13 | 20 | 14.5 | 0.0 | 0.00 | 0.00 | 0.00 | 58 | 1019.0 |
| 20260509132255 | 13 | 10 | 11.3 | 0.0 | 0.00 | 0.00 | 0.00 | 54 | |
| 20260509130240 | 13 | 20 | 12.9 | 0.0 | 0.00 | 0.00 | 0.00 | 58 | 1020.0 |
| 20260509123231 | 13 | 60 | 12.9 | 0.0 | 0.00 | 0.00 | 0.00 | 58 | 1020.0 |
| 20260509122156 | 13 | 40 | 14.5 | 0.0 | 0.00 | 0.00 | 0.00 | 54 | |
| 20260509120234 | 12 | 30 | 12.9 | 0.0 | 0.00 | 0.00 | 0.00 | 58 | 1020.0 |
| 20260509113231 | 13 | 30 | 14.5 | 0.0 | 0.00 | 0.00 | 0.00 | 54 | 1020.0 |
| 20260509112156 | 13 | 50 | 11.3 | 0.0 | 0.00 | 0.00 | 0.00 | 54 | |
| 20260509110232 | 12 | 40 | 11.3 | 0.0 | 0.00 | 0.00 | 0.00 | 58 | 1020.0 |
| 20260509103231 | 13 | 30 | 12.9 | 0.0 | 0.00 | 0.00 | 0.00 | 54 | 1020.0 |
| 20260509102356 | 12 | 20 | 11.3 | 0.0 | 0.00 | 0.00 | 0.00 | 58 | |
| 20260509100233 | 12 | 20 | 11.3 | 0.0 | 0.00 | 0.00 | 0.00 | 62 | 1020.0 |
| 20260509093230 | 12 | 30 | 12.9 | 0.0 | 0.00 | 0.00 | 0.00 | 58 | 1020.0 |
| 20260509092211 | 12 | 40 | 11.3 | 0.0 | 0.00 | 0.00 | 0.00 | 54 | |
| 20260509090239 | 12 | 60 | 4.8 | 0.0 | 0.00 | 0.00 | 0.00 | 62 | 1020.0 |
| 20260509083230 | 12 | 40 | 9.7 | 0.0 | 0.00 | 0.00 | 0.00 | 58 | 1020.0 |
| 20260509082211 | 12 | 20 | 14.5 | 0.0 | 0.00 | 0.00 | 0.00 | 58 | |
| 20260509080240 | 12 | 20 | 16.1 | 0.0 | 0.00 | 0.00 | 0.00 | 58 | 1020.0 |
| 20260509073231 | 12 | 20 | 16.1 | 0.0 | 0.00 | 0.00 | 0.00 | 71 | 1020.0 |
| 20260509072311 | 12 | 30 | 19.3 | 0.0 | 0.00 | 0.00 | 0.00 | 62 | |
| 20260509070239 | 12 | 30 | 14.5 | 0.0 | 0.00 | 0.00 | 0.00 | 66 | 1020.0 |
| 20260509063224 | 11 | 30 | 14.5 | 0.0 | 0.00 | 0.00 | 0.00 | 71 | 1020.0 |
| 20260509062214 | 11 | 30 | 14.5 | 0.0 | 0.00 | 0.00 | 0.00 | 76 | |
| 20260509060242 | 11 | 30 | 14.5 | 0.0 | 0.00 | 0.00 | 0.00 | 76 | 1019.0 |
| 20260509053224 | 10 | 30 | 9.7 | 0.0 | 0.00 | 0.00 | 0.00 | 87 | 1020.0 |
| 20260509052156 | 8 | 10 | 3.2 | 0.0 | 0.00 | 0.00 | 0.00 | 93 |